星链-3158 (STARLINK-3158 )

导读

STARLINK-3158是美国太空探索技术公司于2021年11月13日发射的星链卫星,属于星链星座组网卫星,是Starlink项目的组成部分,主要为全球提供低延迟、高速率的宽带互联网服务。作为低轨通信卫星,它运行在近地轨道,依托大规模星座部署,助力实现全球覆盖的网络接入,推动卫星互联网商业化应用。

Basic Information
目录编号:
49432
目录名称:
STARLINK-3158
国际标识:
2021-104AA
轨道中心:
EARTH
卫星名称:
星链-3158
卫星全名:
星链-3158 (STARLINK-3158 )
卫星状态:
在轨 (已飞行1756 天)
发射日期:
2021-11-13 UTC
国别 :
美国 (US)
星等 :
--
Orbit Information
数据来源 国际轨道数据 AOE轨道数据
星历时间 2026-09-04T09:17:37+0800
10小时前
查看轨道信息
2026-09-03T23:00:00+0800
20小时前
查看轨道信息
半长轴 6848.894km 6848.827km
偏心率 0.0001033 0.0001582
轨道倾角 53.159° 53.161°
近地点辐角 107.264° 126.289°
升交点赤经 128.429° 130.427°
平近点角 252.847° 27.612°
近地点 470.049km 469.606km
远地点 471.465km 471.774km
周期 94.014分钟 94.012分钟
每日圈数 15.316943 15.317168
Detailed Information
固有亮度:
5
最大亮度:
2.5
卫星平台:
Starlink v1.5
覆盖范围:
全球
运营商:
太空探索技术公司
运营商所在国:
美国
制造商(研发单位):
太空探索技术公司
制造商所在国:
美国
使用方式:
暂无
Satellite Introduction
星链(Starlink)计划是由太空探索技术公司(SpaceX)提出的一个巨型低轨卫星互联网星座项目,计划在2019年至2024年间在太空搭建由约1.2万颗卫星组成的“星链”网络,其中1584颗将部署在地球上空550千米处的近地轨道,并从2020年开始工作。该卫星仍在工作。
2D Orbit Map
3D Orbit Map
Orbit Altitude Analysis Chart
Orbit Inclination Analysis Chart
Orbit Comprehensive Analysis Chart
View Comprehensive Chart
Conjunction Data List
Event ID Objects TCA Miss Dist (km) Collision Risk Probability Collision Risk Index (CRI) Action
CDM_260829-162304-943206-594623
OBJECT B (65946)
2026-08-29T
16:23:09+0000
0.911 km
远距离
3.216037E-5 中风险 0.65
CDM_260905-113704-743704-943221
2026-09-05T
11:37:30+0000
2.451 km
极远距离
1.810177E-6 低风险 0.4
CDM_260905-011904-943206-950021
2026-09-05T
01:19:26+0000
2.607 km
极远距离
1.593944E-6 低风险 0.39
CDM_260905-201904-943206-528021
2026-09-05T
20:19:50+0000
2.652 km
极远距离
1.586224E-6 低风险 0.39
CDM_260906-053604-943206-766321
2026-09-06T
05:36:51+0000
2.743 km
极远距离
1.498127E-6 低风险 0.39
CDM_260905-043604-943206-966321
2026-09-05T
04:36:00+0000
2.939 km
极远距离
1.367993E-6 低风险 0.38
CDM_260905-163404-943205-213821
2026-09-05T
16:34:19+0000
2.836 km
极远距离
1.248507E-6 低风险 0.37